Hourly Data Report for March 06, 2012

All times are specified in Local Standard Time (LST). Add 1 hour to adjust for Daylight Saving Time where and when it is observed.

HALIFAX STANFIELD INT'L A
NOVA SCOTIA

44°52'48.060" N
63°30'00.050" W
145.40 m
8202250
71395
YHZ

Download Data

Hourly Data (March 2012)
Hourly Data Report for March 6, 2012
TIME Temp Definition
°C
Dew Point Definition
°C
Rel Hum Definition
%
Wind Dir Definition
10's deg

Wind Spd Definition
km/h
Visibility Definition
km
Stn Press Definition
kPa
Hmdx Definition


Wind Chill Definition


Weather Definition


00:00 -3.6 -4.5 93 2 7 8.0 100.17   -7 Snow Showers
01:00 -3.6 -4.3 95 4 4 4.8 100.27   -5 Snow Showers
02:00 -3.6 -4.4 94 35 6 4.8 100.32   -6 Snow Showers
03:00 -4.0 -4.8 94 36 7 6.4 100.32   -7 Snow Showers
04:00 -4.6 -5.4 94 4 11 8.0 100.32   -9 Snow Showers
05:00 -4.6 -5.6 93 36 9 8.0 100.40   -8 Snow Showers
06:00 -4.1 -5.1 93 1 7 6.4 100.50   -7 Snow Showers
07:00 -4.2 -5.1 93 1 11 6.4 100.51   -9 Snow Showers
08:00 -4.0 -5.0 93 1 13 6.4 100.60   -9 Snow Showers
09:00 -4.1 -5.1 93 1 15 6.4 100.66   -9 Snow Showers
10:00 -4.0 -5.4 90 36 26 9.7 100.65   -11 Snow Showers
11:00 -3.9 -6.0 85 2 24 19.3 100.68   -11 Snow Showers
12:00 -4.2 -6.4 85 35 28 24.1 100.66   -12 Snow Showers
13:00 -4.3 -7.1 81 35 30 24.1 100.65   -12 Cloudy
14:00 -4.3 -7.6 78 36 30 24.1 100.66   -12 Cloudy
15:00 -4.4 -7.5 79 36 28 24.1 100.67   -12 Snow Showers
16:00 -4.7 -7.4 81 35 30 16.1 100.71   -13 Snow Showers
17:00 -5.0 -7.7 81 33 26 19.3 100.76   -12 Snow Showers
18:00 -5.5 -8.7 78 33 30 19.3 100.89   -14 Snow Showers
19:00 -6.3 -9.7 77 34 24 24.1 100.98   -14 Mainly Clear
20:00 -6.8 -9.7 80 32 22 24.1 101.05   -14 Mainly Clear
21:00 -6.9 -10.0 79 32 30 24.1 101.15   -15 Mainly Clear
22:00 -7.4 -10.8 77 32 28 24.1 101.19   -16 Mainly Clear
23:00 -7.9 -10.9 79 31 22 24.1 101.22   -16 Clear

Notes on Data Quality.

Legend

  • E = Estimated
  • M = Missing
  • NA = Not Available
Date modified: